Regional Weather Roundup
Issued by NWS Mobile, AL

Home | Current Version | Previous Version | Text Only | Print | Product List | Glossary On
Versions: 1 2 3 4 5 6 7 8 9 10 11 12 13 14 15 16 17 18 19 20 21 22 23 24 25 26 27
000
ASUS44 KMOB 212312
RWRMOB
REGIONAL WEATHER ROUNDUP
NATIONAL WEATHER SERVICE MOBILE AL
600 PM CDT SAT OCT 21 2017

NOTE: "FAIR" INDICATES FEW OR NO CLOUDS BELOW 12,000 FEET WITH NO
      SIGNIFICANT WEATHER AND/OR OBSTRUCTIONS TO VISIBILITY.

  * THESE STATIONS ARE PART OF THE UNIVERSITY OF SOUTH ALABAMA
    MESONET AND ARE NOT UNDER NWS OR FAA QUALITY CONTROL.

ALZ061>064-220000-
COASTAL ALABAMA

CITY           SKY/WX    TMP DP  RH WIND       PRES   REMARKS
MOBILE REG APT PTCLDY    78  70  76 SE12      30.10R
BROOKLEY FIELD MOCLDY    79  73  82 E12       30.10S
USA CAMPUS*    NOT AVBL
DOG RIVER*     NOT AVBL


CITY           SKY/WX    TMP DP  RH WIND       PRES   REMARKS
GULF SHORES    PTCLDY    76  72  87 E7G16     30.10R

$$

ALZ051>060-220000-
INTERIOR SOUTHWEST AND SOUTH CENTRAL ALABAMA

CITY           SKY/WX    TMP DP  RH WIND       PRES   REMARKS
GREENVILLE     CLEAR     76  61  59 SE6       30.15R
EVERGREEN      CLEAR     77  66  68 SE7       30.13R
ATMORE*          N/A    N/A N/A N/A SE7         N/A
ANDALUSIA/OPP  PTCLDY    78  64  61 E5        30.14R
ANDALUSIA*       N/A     75  64  69 E3        30.14S
FLORALA APT    PTCLDY    75  65  70 NE3       30.16R
FLORALA*         N/A     77  66  69 N2        30.86S

$$

FLZ001>006-220000-
WESTERN FLORIDA PANHANDLE

CITY           SKY/WX    TMP DP  RH WIND       PRES   REMARKS
PENSACOLA      CLOUDY    80  68  66 SE9       30.10S
NAS PENSACOLA  PTCLDY    78  68  71 SE14      30.10S
MILTON         CLOUDY    77  70  79 SE7       30.12R
WHTNG S FIELD  MOCLDY    82  65  56 SE9       30.12R


CITY           SKY/WX    TMP DP  RH WIND       PRES   REMARKS
JAY*             N/A     77  64  65 E6        30.11S
DUKE FIELD     MOCLDY    79  68  69 SE5         N/A
CRESTVIEW      PTCLDY    77  67  71 NE3       30.14R
VALPARAISO     PTCLDY    78  69  73 SE9       30.12R
DESTIN         CLOUDY    81  68  64 SE12      30.12R

$$

MSZ076-079-220000-
INTERIOR SOUTHEAST MISSISSIPPI

CITY           SKY/WX    TMP DP  RH WIND       PRES   REMARKS
LEAKESVILLE*     N/A     75  70  83 CALM      30.10R
AGRICOLA*        N/A     77  70  78 E2        30.09R

$$

MARINE OBSERVATIONS

STATION/POSITION TIME  TEMP    WIND        PRES    WAVE
                       AIR SEA DIR/SP/G            HT/PER
                 (UTC) (F)     (DEG/KT/KT) (MB)    (FT/S)
PASCAGOULA       2242   78                 1018.2S
PETIT BOIS ISLND 2242   77                 1018.9S
GRAND BAY        2130   78     100/ 14     1019.0S
KATRINA CUT      2230   78     100/ 20     1018.3F
CEDAR POINT      2230   77     100/ 15     1018.6R
E DAUPHIN ISLAND 2200   78      90/ 20/ 22 1018.1R
MIDDLE BAY LIGHT 2230   77     110/ 17     1018.3S
USCG MOBILE BAY  2242   78 75              1019.1R
STATE DOCKS      2242   79 78              1019.2R
MEAHER PARK      2230   79     110/ 10     1018.6F
WEEKS BAY        2145   81                 1019.0S
FORT MORGAN      2242   79                   N/A
12 S ORANGE BCH  2250   79 79  100/ 21/ 23 1018.2R   6/ 7
PENSACOLA BAY    2242   80 75              1019.8R
64 S DAUPHIN ISL 2300   80 81  110/ 19/ 25 1017.6
67 S FORT MORGAN 2230   79     100/ 23     1017.3S

$$

SELECTED LOCATIONS ACROSS THE REGION

CITY           SKY/WX    TMP DP  RH WIND       PRES   REMARKS
NEW ORLEANS    MOCLDY    79  75  87 SE21      30.02R
GULFPORT       CLOUDY    79  74  84 E15       30.06R
PASCAGOULA AP  PTCLDY    79  69  71 SE12      30.08R
PASCAGOULA*      N/A     73  70  88 NE5         N/A
HATTIESBURG    CLOUDY    78  71  79 SE7       30.07S
LAUREL         CLOUDY    78  71  79 SE6       30.08S
MERIDIAN       PTCLDY    77  67  71 E5        30.10R
JACKSON        CLOUDY    81  70  69 E10       30.05R
MONTGOMERY     PTCLDY    76  62  62 E6        30.16R
TROY           CLOUDY    75  66  73 MISG      30.17R
ASHFORD*         N/A     75  64  69 E3        30.14S
DOTHAN         PTCLDY    78  60  53 E5        30.18S
PANAMA CITY    CLOUDY    78  66  66 E5        30.12R

$$





USA.gov is the U.S. government's official web portal to all federal, state and local government web resources and services.